Date String (YYYY-MM-DD hh:mm:ss) UTC,Instrument flags,absolute air pressure of the measurement (hPa),sample flow rate (lpm),inlet stack bypass flow (lpm),air temperature of the measurement (°C),ambient temperature measured by the external sensor (°C),aerosol sample conditioner tube jacket temperature (°C),OPC LED temperature (°C),internal box temperature (°C),relative humidity of the measurement (%),span deviation,mass concentration of particles derived from Lorenz-Mie calculation of OPC scattering (μg/m³),mass concentration of particles derived from Lorenz-Mie calculation of OPC scattering (μg/m³),mass concentration of particles derived from Lorenz-Mie calculation of OPC scattering (μg/m³)
DateTimeUTC,F1_M11,P_M11,Q1_M11,Q2_M11,T1_M11,T2_M11,T3_M11,T4_M11,T5_M11,U1_M11,ZSPAN_M11,X0_M11,X2_M11,X1_M11
2023-06-22 09:00:00,SystemResetWarning,0833.7,5.00,000.00,030.2,028.6,000.0,038.7,031.7,33.0,0001.9,0009.44,0005.27,0004.37
2023-06-22 09:01:00,SystemResetWarning,0833.7,5.00,000.00,030.2,028.7,000.0,038.7,031.7,33.0,0001.8,0009.55,0005.25,0004.31
2023-06-22 09:02:00,SystemResetWarning,0833.7,5.01,000.00,030.2,028.7,000.0,038.7,031.7,32.8,0000.6,0009.57,0005.21,0004.25
2023-06-22 09:03:00,SystemResetWarning,0833.7,5.00,000.00,030.2,028.7,000.0,038.7,031.7,32.9,-000.8,0009.57,0005.16,0004.20
2023-06-22 09:04:00,SystemResetWarning,0833.6,5.00,000.00,030.2,028.7,000.0,038.7,031.7,32.9,-000.2,0009.38,0005.12,0004.16
2023-06-22 09:05:00,SystemResetWarning,0833.7,5.00,000.00,030.2,028.7,000.0,038.8,031.8,32.9,0001.1,0009.24,0005.09,0004.13
2023-06-22 09:06:00,SystemResetWarning,0833.6,5.00,000.00,030.3,028.7,000.0,038.8,031.8,32.9,0001.0,0008.81,0005.02,0004.10
2023-06-22 09:07:00,SystemResetWarning,0833.7,4.99,000.00,030.3,028.7,000.0,038.8,031.7,32.9,0001.4,0008.69,0004.95,0004.06
2023-06-22 09:08:00,SystemResetWarning,0833.7,5.00,000.00,030.3,028.7,000.0,038.8,031.8,32.6,0002.1,0008.56,0004.85,0004.00
2023-06-22 09:09:00,SystemResetWarning,0833.7,5.00,000.00,030.3,028.7,000.0,038.8,031.7,32.4,0001.1,0008.59,0004.78,0003.93
2023-06-22 09:10:00,SystemResetWarning,0833.7,5.00,000.00,030.3,028.7,000.0,038.8,031.7,32.3,0000.6,0008.97,0004.71,0003.89
2023-06-22 09:11:00,SystemResetWarning,0833.7,5.00,000.00,030.3,028.7,000.0,038.8,031.8,32.2,0000.4,0008.99,0004.64,0003.83
2023-06-22 09:12:00,SystemResetWarning,0833.7,5.00,000.00,030.3,028.7,000.0,038.9,031.8,32.0,0000.0,0008.80,0004.55,0003.79
2023-06-22 09:13:00,SystemResetWarning,0833.7,5.01,000.00,030.3,028.7,000.0,038.9,031.8,31.9,0000.0,0008.69,0004.49,0003.78
2023-06-22 09:14:00,SystemResetWarning,0833.8,5.01,000.00,030.3,028.7,000.0,038.9,031.8,31.9,0000.0,0008.47,0004.42,0003.75
2023-06-22 09:15:00,SystemResetWarning,0833.8,5.00,000.00,030.3,028.7,000.0,038.9,031.8,31.8,0000.0,0008.35,0004.33,0003.70
2023-06-22 09:16:00,SystemResetWarning,0833.8,4.99,000.00,030.4,028.7,000.0,038.9,031.9,31.8,0000.0,0008.33,0004.26,0003.65
2023-06-22 09:17:00,SystemResetWarning,0833.8,4.99,000.00,030.4,028.7,000.0,038.9,031.9,31.8,0000.0,0008.32,0004.23,0003.60
2023-06-22 09:18:00,SystemResetWarning,0833.8,4.99,000.00,030.4,028.7,000.0,038.9,031.8,31.7,0000.0,0008.34,0004.19,0003.56
2023-06-22 09:19:00,SystemResetWarning,0833.8,5.00,000.00,030.4,028.8,000.0,038.9,031.8,31.6,0000.0,0008.21,0004.15,0003.53
2023-06-22 09:20:00,SystemResetWarning,0833.8,5.00,000.00,030.4,028.8,000.0,038.9,031.9,31.6,0000.0,0008.05,0004.10,0003.49
2023-06-22 09:21:00,SystemResetWarning,0833.7,4.99,000.00,030.4,027.8,000.0,038.9,031.9,31.5,0000.0,0007.97,0004.11,0003.47
2023-06-22 09:22:00,SystemResetWarning,0833.7,5.00,000.00,030.4,025.7,000.0,038.8,031.8,31.6,0000.0,0007.73,0004.12,0003.46
2023-06-22 09:23:00,SystemResetWarning,0833.6,5.00,000.00,030.3,024.9,000.0,038.7,031.6,31.6,0000.0,0007.82,0004.16,0003.47
2023-06-22 09:24:00,SystemResetWarning,0833.7,5.01,000.00,030.2,025.1,000.0,038.7,031.3,31.9,0000.0,0007.84,0004.14,0003.45
2023-06-22 09:25:00,SystemResetWarning,0833.6,5.01,000.00,030.1,025.6,000.0,038.7,031.2,32.1,0000.0,0007.89,0004.16,0003.45
2023-06-22 09:26:00,SystemResetWarning,0833.6,4.99,000.00,030.0,026.0,000.0,038.7,031.2,32.2,0000.0,0007.98,0004.19,0003.46
2023-06-22 09:27:00,SystemResetWarning,0833.6,5.00,000.00,030.0,026.4,000.0,038.7,031.2,32.2,0000.0,0007.93,0004.22,0003.49
2023-06-22 09:28:00,SystemResetWarning,0833.7,5.00,000.00,030.0,026.8,000.0,038.7,031.3,32.4,0000.0,0007.99,0004.23,0003.50
2023-06-22 09:29:00,SystemResetWarning,0833.7,4.99,000.00,030.0,027.1,000.0,038.6,031.3,32.4,0000.0,0007.95,0004.23,0003.51
2023-06-22 09:30:00,SystemResetWarning,0833.7,5.01,000.00,029.9,027.4,000.0,038.6,031.3,32.5,0000.0,0008.54,0004.23,0003.52
2023-06-22 09:31:00,SystemResetWarning,0833.6,5.01,000.00,029.9,027.6,000.0,038.6,031.3,32.6,0000.0,0008.93,0004.22,0003.53
2023-06-22 09:32:00,SystemResetWarning,0833.6,5.00,000.00,029.9,027.7,000.0,038.6,031.4,32.6,0000.0,0008.95,0004.19,0003.52
2023-06-22 09:33:00,SystemResetWarning,0833.6,4.99,000.00,029.9,027.9,000.0,038.6,031.4,32.7,0000.0,0008.97,0004.18,0003.53
2023-06-22 09:34:00,SystemResetWarning,0833.5,4.99,000.00,030.0,028.0,000.0,038.6,031.4,32.6,0000.0,0009.42,0004.16,0003.53
2023-06-22 09:35:00,SystemResetWarning,0833.5,4.99,000.00,030.0,028.1,000.0,038.6,031.4,32.6,0000.0,0009.40,0004.16,0003.54
2023-06-22 09:36:00,SystemResetWarning,0833.6,5.00,000.00,030.0,028.2,000.0,038.6,031.4,32.5,0000.0,0009.41,0004.15,0003.54
2023-06-22 09:37:00,SystemResetWarning,0833.6,5.00,000.00,030.0,028.2,000.0,038.6,031.5,32.4,0000.0,0009.45,0004.15,0003.54
2023-06-22 09:38:00,SystemResetWarning,0833.6,5.01,000.00,030.0,028.3,000.0,038.6,031.5,32.4,0000.0,0009.86,0004.19,0003.53
2023-06-22 09:39:00,SystemResetWarning,0833.6,5.01,000.00,030.0,028.3,000.0,038.6,031.5,32.3,0000.0,0010.28,0004.22,0003.55
2023-06-22 09:40:00,SystemResetWarning,0833.6,5.00,000.00,030.0,028.4,000.0,038.6,031.5,32.3,0000.0,0010.79,0004.22,0003.54
2023-06-22 09:41:00,SystemResetWarning,0833.5,4.99,000.00,030.0,028.4,000.0,038.6,031.5,32.4,0000.0,0010.45,0004.24,0003.55
2023-06-22 09:42:00,SystemResetWarning,0833.6,4.99,000.00,030.1,028.5,000.0,038.6,031.5,32.3,0000.0,0010.05,0004.24,0003.54
2023-06-22 09:43:00,SystemResetWarning,0833.6,4.99,000.00,030.1,028.5,000.0,038.6,031.5,32.3,0000.0,0009.56,0004.22,0003.55
2023-06-22 09:44:00,SystemResetWarning,0833.6,5.00,000.00,030.1,028.5,000.0,038.6,031.6,32.3,0000.0,0009.49,0004.22,0003.55
2023-06-22 09:45:00,SystemResetWarning,0833.6,5.01,000.00,030.1,028.5,000.0,038.7,031.6,32.3,0000.0,0009.44,0004.23,0003.53
2023-06-22 09:46:00,SystemResetWarning,0833.6,5.00,000.00,030.1,028.5,000.0,038.7,031.6,32.3,0000.0,0009.34,0004.21,0003.51
2023-06-22 09:47:00,SystemResetWarning,0833.6,5.00,000.00,030.1,028.6,000.0,038.7,031.6,32.4,0000.0,0009.29,0004.21,0003.51
2023-06-22 09:48:00,SystemResetWarning,0833.6,4.99,000.00,030.1,028.6,000.0,038.7,031.6,32.3,0000.0,0009.76,0004.19,0003.49
2023-06-22 09:49:00,SystemResetWarning,0833.5,4.99,000.00,030.2,028.6,000.0,038.7,031.7,32.3,0000.0,0009.62,0004.13,0003.49
2023-06-22 09:50:00,SystemResetWarning,0833.5,5.01,000.00,030.2,028.6,000.0,038.7,031.7,32.3,0000.0,0009.27,0004.08,0003.46
2023-06-22 09:51:00,SystemResetWarning,0833.5,5.00,000.00,030.2,028.6,000.0,038.7,031.7,32.2,0000.0,0008.74,0004.10,0003.47
2023-06-22 09:52:00,SystemResetWarning,0833.5,5.00,000.00,030.2,028.7,000.0,038.7,031.7,32.2,0000.0,0008.69,0004.11,0003.47
2023-06-22 09:53:00,SystemResetWarning,0833.4,5.00,000.00,030.2,028.7,000.0,038.7,031.7,32.1,0000.0,0009.20,0004.16,0003.47
2023-06-22 09:54:00,SystemResetWarning,0833.5,5.00,000.00,030.2,028.7,000.0,038.8,031.7,32.1,0000.0,0009.26,0004.20,0003.47
2023-06-22 09:55:00,SystemResetWarning,0833.4,5.00,000.00,030.2,028.7,000.0,038.8,031.7,32.1,0000.0,0009.34,0004.20,0003.46
2023-06-22 09:56:00,SystemResetWarning,0833.6,4.99,000.00,030.3,028.7,000.0,038.8,031.7,32.0,0000.0,0009.12,0004.16,0003.46
2023-06-22 09:57:00,SystemResetWarning,0833.5,5.00,000.00,030.3,028.7,000.0,038.8,031.8,31.9,0000.0,0009.04,0004.16,0003.46
2023-06-22 09:58:00,SystemResetWarning,0833.6,5.00,000.00,030.3,028.7,000.0,038.8,031.8,31.9,0000.0,0009.02,0004.13,0003.45
2023-06-22 09:59:00,SystemResetWarning,0833.5,5.00,000.00,030.3,028.7,000.0,038.8,031.8,31.9,0000.0,0008.45,0004.12,0003.45
